This is the latest recevied weather packets stored in our database for station/object KC8SWY-15. If no packets are shown the sender has not sent any weather packets the latest 1 day(s).
| Time | Temp. | Humidity | Pressure | Rain* | Wind** | Luminosity | Snow |
|---|---|---|---|---|---|---|---|
| 1777990469 | 6.67° C | 87% | 1008.2 hPa | 1.27 mm | 0.45 m/s, 269° | - | - |
| 1777990169 | 6.67° C | 87% | 1007.9 hPa | 1.27 mm | 0.45 m/s, 253° | - | - |
| 1777989869 | 6.67° C | 87% | 1007.8 hPa | 1.52 mm | 0.45 m/s, 296° | - | - |
| 1777989571 | 6.67° C | 86% | 1007.7 hPa | 1.27 mm | 0.45 m/s, 305° | - | - |
| 1777989269 | 6.67° C | 86% | 1007.6 hPa | 1.27 mm | 0.45 m/s, 306° | - | - |
| 1777988969 | 6.67° C | 86% | 1007.6 hPa | 1.02 mm | 0.45 m/s, 290° | - | - |
| 1777988669 | 6.67° C | 85% | 1007.5 hPa | 1.02 mm | 0.45 m/s, 292° | - | - |
| 1777988369 | 6.67° C | 84% | 1007.4 hPa | 0.76 mm | 0 m/s | - | - |
| 1777988069 | 6.67° C | 84% | 1007.5 hPa | 0.76 mm | 0.89 m/s, 300° | - | - |
| 1777987769 | 6.67° C | 84% | 1007.6 hPa | 0.51 mm | 1.34 m/s, 319° | - | - |
| 1777987469 | 7.22° C | 83% | 1007.5 hPa | 0.51 mm | 0.89 m/s, 322° | - | - |
| 1777987169 | 7.22° C | 82% | 1007.4 hPa | 0.51 mm | 0.89 m/s, 311° | - | - |
| 1777986869 | 7.78° C | 82% | 1007.1 hPa | 0.25 mm | 0.89 m/s, 325° | - | - |
| 1777986569 | 7.78° C | 79% | 1007 hPa | 0.25 mm | 1.79 m/s, 322° | - | - |
| 1777986269 | 7.78° C | 78% | 1007.3 hPa | 0 mm | 2.24 m/s, 342° | - | - |
| 1777985969 | 7.78° C | 77% | 1007.3 hPa | 0 mm | 2.24 m/s, 298° | - | - |
| 1777985669 | 8.33° C | 77% | 1007.2 hPa | 0 mm | 2.68 m/s, 321° | - | - |
| 1777985370 | 8.33° C | 77% | 1007.4 hPa | 0 mm | 2.24 m/s, 321° | - | - |
| 1777985070 | 8.33° C | 76% | 1007 hPa | 0 mm | 2.24 m/s, 322° | - | - |
| 1777984770 | 8.33° C | 76% | 1006.5 hPa | 0 mm | 2.24 m/s, 299° | - | - |
| 1777984470 | 8.33° C | 75% | 1006.3 hPa | 0 mm | 2.68 m/s, 280° | - | - |
| 1777984170 | 8.33° C | 75% | 1006.6 hPa | 0 mm | 2.24 m/s, 267° | - | - |
| 1777983870 | 8.89° C | 74% | 1006.2 hPa | 0 mm | 2.24 m/s, 323° | - | - |
| 1777983570 | 8.89° C | 73% | 1005.8 hPa | 0 mm | 2.24 m/s, 288° | - | - |
| 1777983270 | 8.89° C | 74% | 1005.9 hPa | 0 mm | 1.79 m/s, 355° | - | - |
* Rain latest hour (hover to see other rain measurements)
** Current wind speed in m/s (hover to see current wind gust speed)